Weather in Melnikovo

Russia / Tomsk District     56°33′22″N   84°04′47″E
temp.,
°C
wind,
m/s
gust,
m/s
humid.,
%
clouds,
%
prec.,
mm/h
press.,
hPa
HPBL,
m
23 april, fri
fri2301:00−3nne27945 0.0 1045128
04:00−4nne26965 0.0 1045108
07:00−4nne26935 0.0 1046141
10:00+2nne35765 0.0 1046490
13:00+5nne4561100 0.1 10451390
16:00+6nne455698 0.1 10431558
19:00+4ne36695 0.1 1043340
22:00−2nne22915 0.0 104344
24 april, sat
sat2401:00−2nne25935 0.0 104288
04:00−3nne25965 0.0 104095
07:00−2nne26915 0.0 1039141
10:00+3nne35675 0.0 1037678
13:00+6n3456100 0.0 10351461
16:00+6n345793 0.0 10341410
19:00+5n247213 0.1 1033154
22:00+1nnw117975 0.0 103310
25 april, sun
sun2501:000nnw118287 0.0 103210
04:00−1wnw11856 0.0 103210
07:000wnw11846 0.0 103329
10:00+5w22685 0.0 1032457
13:00+8w225961 0.0 10311372
16:00+9w235289 0.1 10311622
19:00+8nw12616 0.1 1030299
22:00+4ese11765 0.0 103110
26 april, mon
mon2601:00+3se22805 0.0 103011
04:00+1se22845 0.0 103014
07:00+2s238445 0.0 103062
10:00+8s356030 0.0 1029510
13:00+11s3547100 0.0 10281454
16:00+11ssw464398 0.0 10261660
19:00+11s37495 0.0 1024870
22:00+7sse31165100 0.0 1023291
27 april, tue
tue2701:00+7sse51461100 0.0 1019466
04:00+7sse41364100 0.0 1016558
07:00+5ssw38855 3.1 1016346
10:00+9w58730 0.1 1016651
13:00+12w69475 0.6 10172026
16:00+13w593986 0.1 10172738
19:00+12wsw474795 0.1 1017847
22:00+8sw3966100 0.0 1017204